This demonstration page uses our WeatherBlox Daily Observations layout. Learn more.

Left ArrowRight Arrow

Hourly Observations for November 23, 2015

Temp ( °F °C ) Dew Point ( °F °C ) Humidity (%) Winds ( mph kmh ) Pressure ( in mb ) Visibility ( mi km ) Precip ( " mm )
12:51 am 00:51 Clear 48 8.9 27 -2.8 44 44 E 9 15 30.03 1017 10 16.0934 N/A
1:51 am 01:51 Clear 48 8.9 27 -2.8 44 44 SE 10 17 30.02 1017 10 16.0934 N/A
2:51 am 02:51 Clear 48 8.9 27 -2.8 44 44 ESE 12 19 30.01 1016 10 16.0934 N/A
3:51 am 03:51 Clear 48 8.9 26 -3.3 42 42 SE 12 19 30.01 1016 10 16.0934 N/A
4:51 am 04:51 Clear 48 8.9 26 -3.3 42 42 ESE 13 20 30.02 1017 10 16.0934 N/A
5:51 am 05:51 Clear 47 8.3 26 -3.3 44 44 ESE 10 17 30.04 1017 10 16.0934 N/A
6:51 am 06:51 Clear 48 8.9 25 -3.9 41 41 SE 13 20 30.06 1018 10 16.0934 N/A
7:51 am 07:51 Sunny 49 9.4 25 -3.9 39 39 SE 14 22 30.07 1018 10 16.0934 N/A
8:51 am 08:51 undefined 52 11.1 25 -3.9 35 35 ESE 8 13 30.08 1019 10 16.0934 N/A
9:51 am 09:51 Sunny 55 12.8 24 -4.4 30 30 SE 13 20 30.08 1019 10 16.0934 N/A
10:51 am 10:51 undefined N/A N/A N/A undefined N/A N/A N/A N/A
11:51 am 11:51 undefined 63 17.2 24 -4.4 23 23 SSE 9 15 30.01 1016 10 16.0934 N/A
12:51 pm 12:51 Sunny 65 18.3 23 -5 20 20 S 6 9 29.97 1015 10 16.0934 N/A
1:51 pm 13:51 Sunny 68 20 23 -5 18 18 S 8 13 29.94 1014 10 16.0934 N/A
2:51 pm 14:51 Sunny 69 20.6 24 -4.4 18 18 S 9 15 29.92 1013 10 16.0934 N/A
3:51 pm 15:51 Sunny 69 20.6 25 -3.9 19 19 S 7 11 29.92 1013 10 16.0934 N/A
4:51 pm 16:51 Sunny 67 19.4 25 -3.9 20 20 S 6 9 29.91 1013 10 16.0934 N/A
5:51 pm 17:51 Clear 59 15 25 -3.9 27 27 N N/A 29.93 1014 10 16.0934 N/A
6:51 pm 18:51 Clear 54 12.2 25 -3.9 33 33 NE 5 7 29.96 1015 10 16.0934 N/A
7:51 pm 19:51 Clear 50 10 25 -3.9 38 38 ESE 5 7 29.97 1015 10 16.0934 N/A
8:51 pm 20:51 Clear 49 9.4 26 -3.3 41 41 ENE 7 11 29.98 1015 10 16.0934 N/A
9:51 pm 21:51 Clear 48 8.9 26 -3.3 42 42 N N/A 29.98 1015 10 16.0934 N/A
10:51 pm 22:51 Clear 42 5.6 25 -3.9 51 51 NNW 7 11 30.06 1018 10 16.0934 N/A
11:51 pm 23:51 Clear 42 5.6 26 -3.3 53 53 SE 3 6 29.98 1015 10 16.0934 N/A

Powered by AerisWeather